TimeMST,TemperatureF,Dew PointF,Humidity,Sea Level PressureIn,VisibilityMPH,Wind Direction,Wind SpeedMPH,Gust SpeedMPH,PrecipitationIn,Events,Conditions,WindDirDegrees,DateUTC
12:53 AM,23.0,18.0,81,29.70,10.0,North,11.5,-,N/A,,Overcast,350,2012-12-19 07:53:00
1:12 AM,23.0,19.4,86,29.64,10.0,North,13.8,-,N/A,,Overcast,350,2012-12-19 08:12:00
1:53 AM,21.9,19.0,89,29.71,10.0,North,10.4,-,N/A,,Overcast,350,2012-12-19 08:53:00
2:13 AM,21.2,19.4,93,29.65,10.0,North,11.5,-,N/A,,Overcast,360,2012-12-19 09:13:00
2:30 AM,21.2,19.4,93,29.64,10.0,NNW,8.1,-,N/A,,Overcast,340,2012-12-19 09:30:00
2:53 AM,21.0,19.0,92,29.70,10.0,NNW,9.2,-,N/A,,Overcast,340,2012-12-19 09:53:00
3:53 AM,21.0,17.1,85,29.70,10.0,NNW,10.4,-,N/A,,Overcast,340,2012-12-19 10:53:00
5:00 AM,21.2,17.6,86,29.62,10.0,North,19.6,24.2,N/A,,Overcast,360,2012-12-19 12:00:00
5:53 AM,19.9,17.1,89,29.78,3.0,North,15.0,26.5,0.00,Snow,Light Snow,360,2012-12-19 12:53:00
6:09 AM,19.4,17.6,93,29.70,2.0,North,19.6,25.3,0.00,Snow,Light Snow,350,2012-12-19 13:09:00
6:30 AM,19.4,17.6,93,29.71,1.0,North,18.4,-,0.00,Snow,Light Snow,350,2012-12-19 13:30:00
6:35 AM,19.4,17.6,93,29.71,0.5,North,16.1,26.5,0.00,Fog-Snow,Snow,350,2012-12-19 13:35:00
6:53 AM,19.0,17.1,92,29.82,0.5,North,20.7,26.5,0.00,Fog-Snow,Snow,360,2012-12-19 13:53:00
7:25 AM,17.6,15.8,93,29.72,1.5,North,17.3,23.0,0.00,Snow,Light Snow,360,2012-12-19 14:25:00
7:53 AM,18.0,16.0,92,29.86,1.0,North,17.3,-,0.00,Snow,Light Snow,10,2012-12-19 14:53:00
8:00 AM,17.6,17.6,100,29.72,0.5,North,17.3,-,0.00,Fog-Snow,Snow,350,2012-12-19 15:00:00
8:53 AM,19.0,17.1,92,29.89,0.5,North,12.7,-,0.00,Fog-Snow,Snow,360,2012-12-19 15:53:00
9:53 AM,18.0,15.1,88,29.93,0.5,North,20.7,28.8,0.00,Fog-Snow,Snow,350,2012-12-19 16:53:00
10:53 AM,17.1,15.1,92,29.95,0.5,North,23.0,32.2,0.00,Fog-Snow,Snow,350,2012-12-19 17:53:00
11:53 AM,16.0,14.0,92,29.99,0.5,North,23.0,31.1,0.01,Fog-Snow,Snow,360,2012-12-19 18:53:00
12:53 PM,17.1,12.9,84,30.00,0.5,North,21.9,31.1,0.00,Fog-Snow,Snow,10,2012-12-19 19:53:00
1:28 PM,17.6,12.2,79,29.84,2.0,North,19.6,28.8,0.00,Snow,Light Snow,10,2012-12-19 20:28:00
1:53 PM,17.1,10.9,77,30.02,9.0,North,18.4,25.3,0.00,,Overcast,10,2012-12-19 20:53:00
2:34 PM,17.6,10.4,73,29.88,10.0,North,16.1,23.0,N/A,,Overcast,350,2012-12-19 21:34:00
2:53 PM,18.0,9.0,68,30.06,10.0,North,15.0,-,N/A,,Overcast,360,2012-12-19 21:53:00
3:53 PM,18.0,8.1,65,30.10,10.0,North,17.3,-,N/A,,Overcast,360,2012-12-19 22:53:00
4:53 PM,14.0,6.1,71,30.15,10.0,North,6.9,-,N/A,,Mostly Cloudy,350,2012-12-19 23:53:00
5:53 PM,14.0,6.1,71,30.19,10.0,NW,4.6,-,N/A,,Mostly Cloudy,320,2012-12-20 00:53:00
6:53 PM,14.0,8.1,77,30.23,10.0,WSW,3.5,-,N/A,,Scattered Clouds,250,2012-12-20 01:53:00
7:53 PM,10.9,6.1,81,30.27,10.0,WSW,4.6,-,N/A,,Scattered Clouds,240,2012-12-20 02:53:00
8:53 PM,14.0,3.0,62,30.27,10.0,NW,8.1,-,N/A,,Scattered Clouds,310,2012-12-20 03:53:00
9:53 PM,8.1,-0.9,67,30.31,10.0,WSW,8.1,-,N/A,,Scattered Clouds,250,2012-12-20 04:53:00
10:53 PM,8.1,-5.1,55,30.32,10.0,WSW,9.2,-,N/A,,Scattered Clouds,250,2012-12-20 05:53:00
11:53 PM,8.1,-5.1,55,30.34,10.0,West,8.1,-,N/A,,Partly Cloudy,260,2012-12-20 06:53:00